Regional Weather Roundup
Issued by NWS Lake Charles, LA

Home | Current Version | Previous Version | Text Only | Print | Product List | Glossary On
Versions: 1 2 3 4 5 6 7 8 9 10 11 12 13 14 15 16 17 18 19 20 21 22 23 24 25 26 27 28 29 30 31 32 33 34 35 36 37 38 39 40 41 42 43 44 45 46 47 48 49 50
202
ASUS44 KLCH 272310
RWRLCH
REGIONAL WEATHER ROUNDUP
NATIONAL WEATHER SERVICE LAKE CHARLES LA
600 PM CDT MON MAR 27 2017

Note: "fair" indicates few or no clouds below 12,000 feet with no
significant weather and/or obstructions to visibility.


ACROSS SOUTHEAST TEXAS

CITY           SKY/WX    TMP DP  RH WIND       PRES   REMARKS
BEAUMONT       MOSUNNY   79  67  66 S13       29.87S
BEAUMONT CITY  MOCLDY   N/A N/A N/A S12G17    29.87S
ORANGE         MOCLDY    77  70  78 S10G20    29.90S
JASPER           N/A     81  69  68 S10       29.87S
$$

ACROSS CENTRAL LOUISIANA

CITY           SKY/WX    TMP DP  RH WIND       PRES   REMARKS
LEESVILLE      MOSUNNY   79  69  71 S13       29.85S
FULLERTON      FAIR      79  66  64 VRB5      29.84S
ALEXANDRIA INT LGT RAIN  79  66  64 S17       29.84S
ESLER FIELD    MOSUNNY   78  66  66 S13G20    29.85S
DERIDDER       FAIR      80  66  62 S17       29.88S
OAKDALE        PTCLDY    78  65  63 S9G16     29.88F
OPELOUSAS      FAIR      78  66  66 MISG      29.90R
$$

ACROSS SOUTHWEST AND SOUTH CENTRAL LOUISIANA

CITY           SKY/WX    TMP DP  RH WIND       PRES   REMARKS
SULPHUR        PTCLDY    78  68  70 S13G20    29.90S
LAKE CHARLES   PTSUNNY   77  67  71 S12G20    29.89F
CHENNAULT INT  MOSUNNY   77  66  69 S14G20    29.89F
CAMERON PHI    PTCLDY    75  72  88 S10       29.88F
DEQUINCY       FAIR      76  65  68 S13G20    29.88S
JENNINGS       FAIR      75  66  73 S12       29.90F
LAFAYETTE      MOSUNNY   79  68  69 S10       29.91S
NEW IBERIA     MOSUNNY   78  67  68 S13       29.92S
ABBEVILLE      FAIR      75  72  88 S13       29.92S
PATTERSON      SUNNY     76  68  76 S13       29.93S
SALT POINT       N/A     75  69  81 VRB6      29.91S
$$

SELECTED SITES ACROSS THE REGION

CITY           SKY/WX    TMP DP  RH WIND       PRES   REMARKS
HOUSTON BUSH   MOSUNNY   83  65  54 S14       29.82F
HOUSTON HOBBY  MOSUNNY   80  67  64 SE14G23   29.83S
GALVESTON      CLOUDY    77  72  84 SE9       29.87F
COLLEGE STAT   SUNNY     82  66  58 SW5       29.81F
CONROE         PTSUNNY   82  66  58 SE7       29.82F
HUNTSVILLE     SUNNY     82  64  54 VRB3      29.83F
LUFKIN         SUNNY     80  65  59 SW7       29.83F
SHREVEPORT     MOSUNNY   80  65  59 SW10      29.82F
MONROE         PTSUNNY   82  64  54 SW10      29.82S
NATCHEZ MS     NOT AVBL
BATON ROUGE    MOSUNNY   81  63  54 S14       29.90F
N.O. INTL ARPT MOSUNNY   78  65  63 S15       29.92F
SLIDELL        CLOUDY    79  67  66 S12G22    29.92F
$$

MARINE REPORTS

STATION/POSITION TIME  SKY/WX   TEMP    WIND        PRES    VSBY
                                AIR SEA DIR/SP/G
                 (UTC)          (F)     (DEG/KT/KT) (MB)    (MI)
BUOY 30 S HIGH I 2250            73 74  120/  6/  8 1011.4F
WVE H/P(F/S)=  4/ 7

SEA RIM ST PARK  2300            73     150/  7/  8 1012.3F
PORT ARTHUR      2248               74  180/  9/ 14 1012.1F
SABINE PASS N    2248            74 76  160/  8/ 11 1013.4F
TEXAS POINT      NOT AVBL
CALCASIEU PASS   2248            74 74  180/  7/ 11   N/A
LK CHARLES BEACH 2248            78 71              1012.5F
MARSH ISLAND     2200            74                   N/A
FRESH WATER LOCK 2248            74 77  160/ 13/ 19 1012.4F
AMERADA PASS     2248            75 67  160/  5/ 12 1013.0F
$$




USA.gov is the U.S. government's official web portal to all federal, state and local government web resources and services.